www.pogodaiklimat.ru

Погода и климат >> Архив погоды >> Финляндия >> Кухмо Каллиёки


ПОГОДА в Кухмо Каллиёки

  • Прогноз погоды в Кухмо Каллиёки
  • Монитор погоды в Кухмо Каллиёки

АРХИВ ПОГОДЫ в Кухмо Каллиёки

Время (UTC), дата Ветер
(напр.,м/с)
 
Видим.   Явления Облачность Т
(С)
Тd
(С)
f
(%)
Тe
(С)
Тes
(С)
Комфортность P
(гПа)
Po
(гПа)
Тmin
(С)
Tmax
(С)
R
(мм)
R24
(мм)
S
(см)
22 11.07 З 1 45 км 6/6
[]
+5.0 +4.2 95 +4 +4 1008.4 984.2
23 11.07 З 1 50 км 9/4 1000 м
[]
+6.5 +4.8 89 +5 +5 1007.7 983.7
00 12.07 З 1-3
{4}
50 км 9/1 1000 м
[]
+6.9 +4.7 86 +6 +6 1007.2 983.2
01 12.07 З 1 50 км 10/10
[]
+7.2 +4.6 84 +6 +6 1006.7 982.8
02 12.07 СЗ 2 50 км 9/9 2000 м
[]
+7.4 +4.5 82 +5 +5 1006.1 982.2
03 12.07 СЗ 2-4
{5}
50 км 9/9 2000 м
[]
+8.0 +4.1 76 +6 +6 1005.4 981.5
04 12.07 СЗ 2-5
{5}
50 км 9/0 1500 м
[]
+8.3 +4.1 75 +7 +7 1005.1 981.3
05 12.07 С 2-6
{7}
40 км в посл. час дождь 9/9 600 м
[]
+7.9 +4.7 80 +6 +6 1005.1 981.3
06 12.07 С 2-5
{8}
30 км {ливн. осадки, дождь} 10/10 300 м
[]
+7.3 +4.6 83 +5 +5 1005.5 981.6 +4.7 +8.9
07 12.07 С 3-6
{9}
35 км 10/10 300 м
[]
+8.1 +4.7 79 +5 +5 1005.4 981.6
08 12.07 С 3 12 км слаб. дождь 10/10 300 м
[]
+7.7 +6.6 93 +5 +5 1005.4 981.5
09 12.07 С 3-7
{9}
10 км слаб. ливневой дождь 10/10 300 м
[]
+8.4 +7.4 93 +6 +6 1005.4 981.6 0.1
10 12.07 С 2 18 км слаб. ливневой дождь 9/9 300 м
[]
+8.9 +7.0 88 +7 +8 1005.2 981.5
11 12.07 С 2 8000 м дождь 9/9 300 м
[]
+9.0 +8.2 95 +7 +8 1005.4 981.7
12 12.07 С 3-7
{8}
40 км слаб. ливневой дождь 9/9 300 м
[]
+9.6 +7.6 87 +7 +8 1005.5 981.8 0.1
13 12.07 С 3-8
{8}
45 км слаб. ливневой дождь 9/9 300 м
[]
+10.2 +7.0 81 +8 +9 1005.5 981.9
14 12.07 СВ 2 16 км слаб. ливневой дождь 9/9 300 м
[]
+8.6 +7.7 94 +7 +7 1006.1 982.3
15 12.07 С 3-7
{7}
20 км ливневой дождь {метель} 9/9 300 м
[]
+8.5 +7.3 92 +6 +6 1006.3 982.5 0.4
16 12.07 С 2 18 км морось 10/10 600 м
[]
+8.0 +7.0 93 +6 +6 1006.4 982.6
17 12.07 С 2-7
{8}
12 км слаб. ливневой дождь 10/10 300 м
[]
+7.8 +6.8 93 +6 +6 1006.6 982.8 0.2
18 12.07 С 2-5
{6}
50 км слаб. ливневой дождь 10/10 600 м
[]
+7.5 +6.2 91 +5 +5 1006.8 982.9 +7.3 +10.3 3
19 12.07 С 2-5
{6}
50 км 10/10 300 м
[]
+7.5 +6.2 91 +5 +5 1007.1 983.2
20 12.07 С 2 50 км 10/10 300 м
[]
+7.3 +6.1 92 +5 +5 1007.5 983.5
21 12.07 С 2-4
{5}
50 км {ливн. осадки, метель} 10/10 300 м
[]
+7.3 +6.2 93 +5 +5 1007.6 983.7
22 12.07 С 2 50 км осадки 9/9 300 м
[]
+6.8 +5.6 92 +4 +4 1007.8 983.8
23 12.07 С 2 50 км в посл. час морось 6/6 600 м
[]
+6.2 +5.1 93 +4 +4 1008.1 984.1
00 13.07 С 2-5
{6}
4900 м ливневой дождь 9/9 200 м
[]
+6.3 +5.6 95 +4 +4 1008.3 984.3
01 13.07 С 2 50 км в посл. час морось 9/9 200 м
[]
+6.4 +5.6 95 +4 +4 1008.4 984.4
02 13.07 С 2-5
{7}
50 км 9/9 300 м
[]
+6.6 +5.7 94 +4 +4 1008.5 984.5
03 13.07 С 2-5
{6}
50 км {ливн. осадки, метель} 10/10 200 м
[]
+7.2 +5.9 91 +5 +5 1008.6 984.6
04 13.07 С 2 50 км 9/9 300 м
[]
+7.8 +5.9 88 +6 +6 1008.7 984.8
05 13.07 С 2 50 км 9/9 300 м
[]
+8.4 +6.3 87 +6 +7 1008.8 984.9
06 13.07 С 3-5
{8}
50 км {ливн. осадки, метель} 9/9 300 м
[]
+9.5 +6.1 79 +7 +8 1008.6 984.8 +6.1 +10.3 0.1
07 13.07 С 3-5
{7}
9000 м слаб. ливневой дождь 10/10 600 м
[]
+10.1 +7.0 81 +8 +9 1008.7 985.0
08 13.07 С 2-5
{5}
22 км слаб. ливневой дождь 9/9 300 м
[]
+9.6 +7.4 86 +8 +9 1009.0 985.3 0.3
09 13.07 С 2-4
{6}
30 км слаб. ливневой дождь 9/9 600 м
[]
+10.3 +8.1 86 +9 +10 1009.0 985.3 0.5
10 13.07 С 3 45 км в посл. час дождь 9/9 600 м
[]
+12.4 +7.2 71 +11 +12 1008.6 985.0
11 13.07 С 3-7
{8}
40 км в посл. час дождь 4/4 1000 м
[]
+13.5 +6.3 62 +12 +16 1008.3 984.9
12 13.07 С 3 45 км в посл. час дождь {ливн. осадки} 4/4 600 м
[]
+14.2 +7.2 63 +13 +18 1008.2 984.8
13 13.07 СВ 2 19 км слаб. ливневой дождь 9/9 600 м
[]
+8.7 +7.7 93 +7 +8 1009.8 986.0
14 13.07 С 1 50 км в посл. час дождь 6/6 1000 м
[]
+9.6 +8.1 90 +9 +12 1009.9 986.1
15 13.07 С 2-5
{5}
45 км в посл. час морось {ливн. осадки} 4/1 2000 м
[]
+11.6 +8.6 82 +10 +14 1009.7 986.1
16 13.07 СВ 3 35 км слаб. ливневой дождь 9/9 1000 м
[]
+10.4 +8.4 87 +8 +8 1010.0 986.3
17 13.07 С 2 50 км в посл. час дождь 6/1 1000 м
[]
+10.1 +7.8 86 +9 +9 1010.0 986.3
18 13.07 С 2-4
{5}
45 км слаб. ливневой дождь {метель} 9/9 1000 м
[]
+9.5 +7.4 87 +8 +8 1010.3 986.5 +8.7 +14.5 2
19 13.07 С 2-4
{5}
50 км слаб. ливневой дождь 9/6 1000 м
[]
+9.1 +7.4 89 +7 +7 1010.3 986.4
20 13.07 С 2-4
{5}
35 км слаб. ливневой дождь 9/9 300 м
[]
+9.0 +7.5 90 +7 +7 1010.3 986.5
21 13.07 С 2-4
{5}
45 км в посл. час морось {ливн. осадки, дождь} 10/10 300 м
[]
+8.8 +7.7 93 +7 +7 1010.5 986.6 0.1
22 13.07 С 2 50 км слаб. морось 10/10 600 м
[]
+8.8 +7.6 92 +7 +7 1010.5 986.6
23 13.07 С 2 50 км слаб. дождь 9/6 600 м
[]
+8.4 +7.6 95 +6 +6 1010.7 986.8
00 14.07 С 2-4
{4}
18 км слаб. ливневой дождь 9/9 1000 м
[]
+8.3 +7.8 97 +6 +6 1010.8 986.9 0.5
01 14.07 С 2 45 км слаб. ливневой дождь 10/10 1000 м
[]
+8.3 +7.9 97 +6 +6 1010.6 986.7
02 14.07 С 1 45 км в посл. час дождь 10/10 600 м
[]
+8.4 +8.0 97 +7 +7 1010.6 986.7
03 14.07 СЗ 1-3
{4}
26 км слаб. ливневой дождь 10/10 300 м
[]
+8.3 +8.0 98 +7 +7 1010.7 986.8 0.4
04 14.07 СЗ 1 40 км слаб. ливневой дождь 9/9 1000 м
[]
+8.6 +8.2 97 +8 +8 1010.6 986.7
05 14.07 СЗ 2-5
{5}
50 км в посл. час дождь 9/0 1500 м
[]
+9.6 +8.8 95 +8 +8 1010.3 986.5 0.3
06 14.07 С 3-6
{6}
50 км {ливн. осадки, дождь} 6/1 300 м
[]
+11.0 +8.4 84 +9 +12 1010.3 986.7 +8.2 +11.3 2
07 14.07 С 3 50 км 9/9 300 м
[]
+11.3 +7.8 79 +10 +10 1010.5 986.8
08 14.07 СВ 3-6
{7}
50 км 9/4 600 м
[]
+12.5 +7.5 72 +11 +15 1010.5 987.0
09 14.07 С 3-6
{8}
50 км 9/4 600 м
[]
+12.5 +6.6 67 +11 +15 1010.7 987.1
10 14.07 С 2 50 км 9/9 600 м
[]
+12.1 +7.1 71 +11 +12 1010.8 987.2
11 14.07 СЗ 2 50 км 9/9 600 м
[]
+12.2 +8.0 75 +11 +12 1010.8 987.2
12 14.07 С 3-6
{6}
50 км в посл. час морось {ливн. осадки, дождь} 9/9 600 м
[]
+12.5 +7.2 70 +11 +12 1011.1 987.5
13 14.07 С 2-4
{6}
50 км в посл. час дождь 9/6 1500 м
[]
+12.5 +7.9 74 +12 +14 1010.9 987.3
14 14.07 СВ 2-2
{6}
50 км 9/4 1000 м
[]
+11.4 +9.0 85 +10 +13 1011.4 987.7
15 14.07 СВ 1-2
{4}
50 км {ливн. осадки, метель} 9/9 600 м
[]
+11.6 +7.9 78 +12 +12 1011.4 987.8
16 14.07 В 1 30 км слаб. ливневой дождь 9/9 600 м
[]
+10.4 +9.6 95 +10 +10 1011.4 987.6
17 14.07 С 1 50 км 9/6 1500 м
[]
+10.8 +9.3 90 +10 +11 1011.3 987.6
18 14.07 В 2-4
{4}
35 км слаб. дождь 10/10 600 м
[]
+9.9 +8.1 89 +8 +8 1011.5 987.8 +9.0 +14.6 3
19 14.07 В 1-2
{4}
14 км слаб. ливневой дождь 9/9 1000 м
[]
+8.7 +8.1 96 +8 +8 1011.6 987.8 0.7
20 14.07 штиль 0 45 км в посл. час дождь 9/9 1500 м
[]
+8.3 +7.9 97 +7 +7 1011.7 987.7
21 14.07 В 2-4
{4}
50 км {ливн. осадки, дождь} 9/9 600 м
[]
+7.9 +7.1 95 +6 +6 1011.9 987.9
22 14.07 штиль 0-1
{4}
23 км слаб. дождь 10/10 1000 м
[]
+7.6 +7.1 97 +7 +7 1011.8 987.8 0.1
23 14.07 штиль 0 26 км в посл. час морось 9/4 300 м
[]
+6.9 +6.7 99 +6 +6 1011.8 987.7
00 15.07 штиль 0-1
{1}
25 км {ливн. осадки, дождь} 9/6 300 м
[]
+7.1 +6.9 99 +6 +6 1011.6 987.6
01 15.07 штиль 0 18 км 10/6 300 м
[]
+7.2 +7.1 99 +6 +6 1011.5 987.5
02 15.07 штиль 0-1
{1}
22 км 10/10 1000 м
[]
+7.6 +7.5 99 +7 +7 1011.3 987.3
03 15.07 С 1-1
{2}
50 км 10/10 600 м
[]
+8.6 +8.4 99 +8 +8 1011.1 987.2
04 15.07 штиль 0-2
{3}
50 км 10/10 1000 м
[]
+9.5 +8.5 93 +9 +9 1011.0 987.2
05 15.07 С 1 50 км 9/9 600 м
[]
+9.7 +8.1 90 +9 +10 1010.9 987.2
06 15.07 СЗ 2-3
{4}
50 км 10/10 300 м
[]
+10.5 +7.2 80 +9 +9 1010.6 986.9 +6.9 +10.7 0.9
07 15.07 С 2-3
{4}
40 км 9/9 1000 м
[]
+11.3 +7.3 76 +10 +10 1010.4 986.8
08 15.07 СВ 2-3
{4}
45 км слаб. ливневой дождь 9/9 600 м
[]
+10.9 +8.6 86 +10 +14 1010.5 986.8 0.1
09 15.07 С 2-4
{4}
40 км {ливн. осадки, дождь} 1/1 1000 м
[]
+13.1 +7.3 68 +12 +23 опасность
простуды
1010.0 986.5
10 15.07 З 2 45 км в посл. час дождь 4/4 600 м
[]
+12.6 +8.3 75 +12 +19 1010.1 986.6
11 15.07 С 2 35 км 4/4 600 м
[]
+13.9 +5.8 58 +14 +20 1009.7 986.3
12 15.07 СВ 2-5
{6}
50 км {ливн. осадки, дождь} 4/4 600 м
[]
+13.2 +7.5 68 +13 +19 1010.0 986.6
13 15.07 СВ 3 35 км 6/6 600 м
[]
+14.4 +8.3 67 +14 +16 1010.1 986.7
14 15.07 С 2-3
{5}
45 км в посл. час дождь 4/1 600 м
[]
+13.6 +8.2 70 +13 +18 1010.3 986.8 0.4
15 15.07 СЗ 2-4
{4}
40 км {ливн. осадки, дождь} 1/1 600 м
[]
+14.2 +7.0 62 +14 +18 1010.1 986.7
16 15.07 С 2 40 км ясно +14.2 +6.1 58 +14 +16 1010.3 986.9
17 15.07 СВ 2 50 км 4/4 1500 м
[]
+13.1 +7.2 67 +12 +13 1010.5 987.0
18 15.07 СВ 1-3
{4}
50 км {ливн. осадки, дождь} ясно +11.4 +7.6 77 +11 +12 1010.8 987.2 +10.4 +15.5 0.5
19 15.07 В 1 50 км ясно +10.0 +7.7 86 +10 +10 1011.0 987.2
20 15.07 СВ 1 50 км 4/4 600 м
[]
+8.3 +7.6 95 +7 +7 1011.4 987.4
21 15.07 В 1-1
{3}
50 км ясно +7.2 +6.9 98 +6 +6 1011.6 987.6
22 15.07 штиль 0-1
{1}
н/о ясно +6.4 +6.2 99 +5 +5 1011.7 987.6
23 15.07 В 1-1
{1}
22 км в посл. час туман 1/0 1500 м
[]
+4.9 +4.8 99 +3 +3 1012.2 987.9
00 16.07 В 1-2
{2}
7000 м в посл. час туман ясно +4.7 +4.7 100 +3 +3 1012.3 988.0
01 16.07 штиль 0-2
{2}
700 м туман ?/? +3.7 +3.6 99 +2 +2 1012.6 988.3
02 16.07 СВ 1 100 м туман ?/? +5.5 +5.5 100 +4 +4 1012.6 988.4
03 16.07 СВ 1-2
{2}
300 м туман ?/? +7.0 +7.0 100 +6 +6 1012.9 988.8
04 16.07 В 1 2400 м туман ?/? +7.6 +7.6 100 +6 +6 1013.0 989.0
05 16.07 СВ 1-2
{2}
50 км 9/9 <50 м
[]
+9.3 +9.2 99 +9 +9 1013.0 989.1
06 16.07 СВ 2-3
{3}
40 км {туман, метель} 1/1 300 м
[]
+12.1 +7.0 71 +11 +17 1012.6 988.9 +3.6 +12.1
07 16.07 СВ 2-4
{5}
40 км 1/0 600 м
[]
+12.5 +6.2 65 +12 +17 1012.6 989.0
08 16.07 С 1 50 км 9/9 600 м
[]
+12.5 +6.7 68 +13 +14 1012.5 988.9
09 16.07 ЮВ 1-3
{3}
45 км 4/4 1000 м
[]
+14.3 +6.9 61 +15 +23 1012.6 989.1
10 16.07 Ю 2-2
{3}
45 км 10/0 1500 м
[]
+14.5 +5.6 55 +14 +14 1012.6 989.2
11 16.07 СВ 1 45 км 1/1 1500 м
[]
+14.8 +6.4 57 +15 +27 опасность
простуды
1012.6 989.2
12 16.07 С 1-3
{3}
45 км 6/6 1500 м
[]
+15.3 +7.4 59 +16 +21 1012.4 989.0
14 16.07 СВ 1-3
{3}
45 км 6/1 1500 м
[]
+16.6 +5.5 48 +18 +22 1012.0 988.8
15 16.07 С 1-2
{2}
50 км 9/9 2000 м
[]
+15.8 +5.9 52 +17 +17 1012.3 989.0
16 16.07 СВ 2 50 км 9/9 2000 м
[]
+15.0 +8.2 64 +15 +15 1012.5 989.2
17 16.07 СВ 1 50 км 10/4 1500 м
[]
+14.4 +8.7 69 +15 +15 1012.9 989.4
18 16.07 В 1-1
{3}
50 км 6/6
[]
+13.6 +9.4 76 +14 +14 1013.0 989.5 +11.7 +17.5
19 16.07 штиль 0
{1}
50 км 1/0
[]
+11.1 +8.7 85 +10 +10 1013.1 989.4
20 16.07 штиль 0-1
{1}
50 км ясно +9.2 +8.5 95 +8 +8 1013.2 989.4
21 16.07 штиль 0-1
{1}
5000 м дымка ясно +7.8 +7.6 99 +7 +7 1013.7 989.7
22 16.07 В 1-1
{1}
3100 м дымка ясно +6.6 +6.5 99 +5 +5 1014.0 989.8
23 16.07 штиль 0-2
{2}
3800 м туман 1/0 <50 м
[]
+5.6 +5.6 100 +4 +4 1014.0 989.8
00 17.07 СВ 1-1
{1}
300 м туман 1/1 <50 м
[]
+5.6 +5.6 100 +4 +4 1014.1 989.8
01 17.07 штиль 0 <100 м туман 6/6 <50 м
[]
+4.3 +4.2 99 +3 +3 1014.1 989.8
02 17.07 штиль 0 200 м туман 10/10 <50 м
[]
+4.4 +4.4 100 +3 +3 1014.1 989.8
03 17.07 СВ 1-2
{2}
6000 м туман ясно +6.9 +6.9 100 +6 +7 1013.6 989.5
04 17.07 СВ 1-2
{2}
50 км 1/0
[]
+9.8 +9.0 95 +9 +12 1013.4 989.5
05 17.07 штиль 0 40 км ясно +13.8 +9.9 77 +13 +19 1013.2 989.7
06 17.07 СВ 1-2
{2}
50 км {туман, метель} 1/1
[]
+15.5 +7.8 60 +16 +23 1012.8 989.5 +4.0 +15.7
07 17.07 В 1-3
{3}
50 км 1/0 1000 м
[]
+17.0 +8.3 57 +18 +27 1012.5 989.3
08 17.07 С 1-3
{3}
50 км 9/1 1000 м
[]
+17.0 +6.5 50 +18 +24 1012.6 989.4
09 17.07 С 1-3
{4}
50 км 9/1 1500 м
[]
+17.1 +6.6 50 +18 +25 1012.5 989.3
10 17.07 СЗ 1 35 км 4/4 2000 м
[]
+18.1 +7.0 48 +19 +28 1012.3 989.1
11 17.07 С 1 45 км 6/1 1500 м
[]
+19.0 +6.9 45 +21 +29 комфорт 1012.0 988.9
12 17.07 СВ 1-2
{3}
50 км 9/4 1500 м
[]
+18.5 +7.7 49 +20 +24 1011.9 988.8
13 17.07 З 1 20 км слаб. дождь 9/6 1000 м
[]
+17.5 +11.9 70 +19 +21 1012.1 988.9
14 17.07 СВ 1 50 км 9/9 2000 м
[]
+19.0 +6.9 45 +21 +21 комфорт 1011.7 988.6
15 17.07 СВ 1-3
{3}
50 км в посл. час дождь {ливн. осадки} 6/1 1000 м
[]
+18.8 +9.9 56 +21 +24 комфорт 1011.4 988.3 0.1
16 17.07 В 2 50 км в посл. час дождь 9/4 1500 м
[]
+17.4 +9.4 59 +18 +19 1011.3 988.1
17 17.07 В 1 50 км 9/1 1500 м
[]
+16.8 +10.2 65 +18 +18 1011.4 988.1
18 17.07 СЗ 4-10
{13}
22 км слаб. дождь 9/6 1500 м
[]
+13.5 +10.6 83 +12 +12 1012.1 988.6 +13.5 +19.5 0.2
19 17.07 З 2 7000 м ливневой дождь 9/9 200 м
[]
+11.7 +10.5 92 +10 +10 1013.3 989.6
20 17.07 С 2 45 км слаб. ливневой дождь 9/6 1500 м
[]
+11.3 +10.7 96 +10 +10 1013.0 989.3
21 17.07 С 1-3
{6}
17 км слаб. ливневой дождь 10/4 1500 м
[]
+11.0 +10.8 99 +11 +11 1013.4 989.7 2
22 17.07 С 1-3
{5}
30 км в посл. час морось 9/1 100 м
[]
+11.0 +10.7 98 +11 +11 1013.6 989.8 0.1
23 17.07 СВ 2 25 км 9/1 100 м
[]
+10.6 +10.4 99 +9 +9 1013.8 990.0
00 18.07 СВ 2-3
{3}
13 км {ливн. осадки, дождь} 9/1
[]
+9.9 +9.8 99 +8 +8 1013.7 989.9
01 18.07 С 1 14 км слаб. ливневой дождь 9/4 100 м
[]
+10.0 +9.9 99 +9 +9 1013.7 989.8
02 18.07 СВ 1 9000 м слаб. ливневой дождь 9/9 2000 м
[]
+10.1 +10.0 99 +9 +9 1013.5 989.6
03 18.07 СВ 1-3
{3}
10 км слаб. ливневой дождь 9/9 1500 м
[]
+10.7 +10.6 99 +10 +10 1013.4 989.6 0.3
04 18.07 СВ 1 15 км слаб. дождь 9/9 1000 м
[]
+11.0 +10.8 99 +11 +11 1013.4 989.6
05 18.07 В 1 22 км слаб. дождь 9/9 1000 м
[]
+11.7 +11.4 98 +11 +12 1013.6 989.9
06 18.07 С 2-2
{2}
35 км в посл. час дождь {ливн. осадки} 9/4 1000 м
[]
+12.2 +11.7 97 +11 +13 1013.2 989.5 +9.7 +13.5 5
07 18.07 СЗ 1 40 км 9/9 2000 м
[]
+13.3 +12.5 95 +13 +14 1012.8 989.2
08 18.07 С 1 35 км 9/9 600 м
[]
+14.9 +13.1 89 +15 +17 1012.6 989.2
09 18.07 С 2-4
{4}
40 км {метель} 9/9 300 м
[]
+15.5 +12.7 83 +15 +16 1012.5 989.2
10 18.07 СВ 2 50 км 10/10 600 м
[]
+15.6 +12.5 82 +15 +15 1012.5 989.1
11 18.07 В 2 50 км 10/10 300 м
[]
+14.7 +12.2 85 +14 +14 1012.6 989.2
12 18.07 В 2-3
{5}
50 км {метель} 10/10 300 м
[]
+15.2 +12.8 86 +15 +15 1012.4 989.0
13 18.07 ЮВ 2 50 км 9/9 300 м
[]
+15.1 +12.9 87 +15 +16 1012.5 989.2
14 18.07 ЮВ 2 6000 м в посл. час морось 9/9 200 м
[]
+14.3 +13.4 94 +14 +14 1012.7 989.2
15 18.07 В 1-2
{3}
15 км в посл. час морось {ливн. осадки, дождь} 10/10 200 м
[]
+14.6 +13.9 96 +15 +15 1012.7 989.2 0.2
16 18.07 С 1 50 км 10/10 200 м
[]
+14.7 +13.9 95 +15 +15 1012.7 989.3
17 18.07 С 1 50 км слаб. морось 10/10 200 м
[]
+14.7 +14.1 96 +15 +15 1012.2 988.8
18 18.07 СВ 2-4
{4}
45 км слаб. ливневой дождь 10/10 200 м
[]
+14.6 +13.8 95 +14 +14 1012.4 989.0 +12.2 +15.8 0.3
19 18.07 СВ 2 50 км в посл. час морось 10/10 100 м
[]
+14.2 +13.7 97 +14 +14 1012.4 989.0
20 18.07 В 1-3
{4}
30 км слаб. ливневой дождь 10/10 100 м
[]
+13.6 +13.1 97 +14 +14 1012.7 989.2 0.1
21 18.07 СВ 1-2
{3}
11 км слаб. дождь 9/1 100 м
[]
+13.0 +12.8 99 +13 +13 1012.4 988.9 0.4

 

Местоположение метеостанции Кухмо Каллиёки (Финляндия): широта 64.30 долгота 30.17 высота над уровнем моря 197 м.

В архиве по умолчанию представлена погода в Кухмо Каллиёки за последнюю неделю. Архивные данные за месяц целиком и за предыдущие месяцы, начиная с января 2011 года, Вы можете получить, выбрав интересующий диапазон дат из раскрывающегося списка и нажав кнопку "Ввод!".


*Определитесь, кто Вы:
робот инопланетянин человек

Внимание! Время в таблицах - всемирное. Для получения местного времени необходимо прибавить поправку, которая равна 1 ч.

Смотрите также архив погоды в соседних городах и на ближайших метеорологических станциях:

Погода в Реболах (Карелия, Россия) (61 км)
Погода в Соткамо Куоланиеми (Финляндия) (91 км)
Погода в Валтимо (Финляндия) (96 км)
Погода в Суомуссалми (Финляндия) (97 км)
Погода в Юшкозере (Карелия, Россия) (106 км)
Погода в Пуоланка Пальякка (Финляндия) (109 км)
Погода в Лиексе (Финляндия) (109 км)
Погода в Калевале (Карелия, Россия) (112 км)
Погода в Каяни (Финляндия) (121 км)
Погода в Раутаваара Яла-Луоста (Финляндия) (126 км)

Пояснения к столбцам:

Ветер - указаны скорость ветра в м/с - средняя за 10 мин, порывы в срок и между сроками (в фигурных скобках) и направление, откуда дует ветер: С - северный, СВ - северо-восточный, В - восточный, ЮВ - юго-восточный, Ю - южный, ЮЗ - юго-западный, З - западный, СЗ - северо-западный.
Видимость - горизонтальная дальность видимости в метрах или километрах. При видимости от 1 до 10 км при отсутствии осадков обычно наблюдается дымка, при ухудшении видимости до 1 км и менее - туман. В сухую погоду видимость может ухудшаться дымом, пылью или мглою.
Явления - указаны атмосферные явления, наблюдавшиеся в срок или в последний час перед сроком; фигурными скобками обозначены явления, наблюдавшиеся между сроками (за 1-3 часа до срока); квадратными скобками обозначены град или гололедные отложения с указанием их диаметра в мм.
Облачность - указаны через наклонную черту общая и нижняя облачность в баллах и высота нижней границы облаков в метрах; квадратными скобками обозначены формы облаков: Ci - перистые, Cs - перисто-слоистые, Cc - перисто-кучевые, Ac - высококучевые, As - высокослоистые, Sc - слоисто-кучевые, Ns - слоисто-дождевые, Cu - кучевые, Cb - кучево-дождевые. Подробнее классификацию облаков см. в Атласе облаков (PDF).
T - Температура воздуха - температура, измеренная на высоте 2 м над землей.
Td - Температура точки росы - температура, при понижении до которой содержащийся в воздухе водяной пар достигнет насыщения.
f - Относительная влажность воздуха - влажноcть воздуха, измеренная на высоте 2 м над землей.
Te - Эффективная температура - температура, которую ощущает одетый по сезону человек в тени. Характеристика душности погоды. При расчете учитывается влияние влажности воздуха и скорости ветра на теплоощущения человека.
Tes - Эффективная температура на солнце - температура, которую ощущает человек, с поправкой на солнечный нагрев. Характеристика знойности погоды. Зависит от высоты солнца над горизонтом, облачности и скорости ветра. Ночью, в пасмурную погоду, а также при ветре 12 м/с и более поправка равна нулю.
P - Атмосферное давление - приведенное к уровню моря атмосферное давление.
Po - Атмосферное давление - измеренное на уровне метеостанции атмосферное давление.
Tmin - Минимальная температура - минимум температуры воздуха на высоте 2 м над землей.
Tmax - Максимальная температура - максимум температуры воздуха на высоте 2 м над землей.
R - Количество осадков - Количество выпавших осадков за период времени, мм. При наведении курсора мыши на число - период времени, за который выпало указанное количество осадков.
R24 - Количество осадков - Количество выпавших осадков за 24 часа, мм.
S - Снежный покров - Высота снежного покрова, см. При наведении курсора мыши на число - состояние снежного покрова и степень покрытия местности в баллах.